"Timestamp","TZ","WindDir_Mean (deg)","WindSpd_Mean (km/h)","WindSpd_Min (km/h)","WindSpd_Max (km/h)","Temp_Mean (deg)","RH_Mean (%)","MSLP_Mean (hPa)","Rain_Acc (mm)","Rain_Intensity (mm/h)","Hail_Acc (hits/cm2)","Hail_Intensity (hits/cm2hr)","Solar_Mean (W/m2)"
2021/06/13 00:00:00.011,n,170,1.8,1.44,1.8,12,71.5,1020.52,0,0,0,0,0.014839
2021/06/13 00:01:00.000,n,148,3.6,3.24,3.96,12,71.7,1020.52,0,0,0,0,0.014839
2021/06/13 00:02:00.000,n,158,4.32,3.96,4.68,11.9,71.7,1020.52,0,0,0,0,0.012207
2021/06/13 00:03:00.001,n,163,5.4,5.04,5.4,11.9,71.8,1020.52,0,0,0,0,0.012207
2021/06/13 00:04:00.000,n,149,2.52,2.16,3.24,11.9,71.8,1020.52,0,0,0,0,0.013084
2021/06/13 00:05:00.000,n,137,1.44,0.36,1.8,11.9,72,1020.52,0,0,0,0,0.018311
2021/06/13 00:06:00.008,n,165,7.2,6.48,9,11.8,71.6,1020.52,0,0,0,0,0.015678
2021/06/13 00:07:00.005,n,163,3.96,3.24,4.32,11.8,71.8,1020.42,0,0,0,0,0.01049
2021/06/13 00:08:00.002,n,164,4.32,3.96,5.4,11.8,72.1,1020.42,0,0,0,0,0.012207
2021/06/13 00:09:00.016,n,190,4.32,3.6,4.32,11.8,72,1020.52,0,0,0,0,0.013084
2021/06/13 00:10:00.000,n,181,3.96,2.88,5.04,11.8,72.1,1020.42,0,0,0,0,0.012207
2021/06/13 00:11:00.000,n,176,5.04,4.32,6.48,11.8,72.1,1020.42,0,0,0,0,0.013084
2021/06/13 00:12:00.000,n,170,6.12,5.76,6.48,11.7,72.2,1020.42,0,0,0,0,0.01049
2021/06/13 00:13:00.004,n,154,2.88,1.8,3.6,11.7,72.4,1020.42,0,0,0,0,0.007858
2021/06/13 00:14:00.003,n,136,3.24,2.16,4.68,11.7,72.6,1020.42,0,0,0,0,0.01049
2021/06/13 00:15:00.000,n,176,6.12,5.76,6.84,11.7,72,1020.42,0,0,0,0,0.009575
2021/06/13 00:16:00.000,n,159,7.2,6.84,7.56,11.7,72,1020.42,0,0,0,0,0.012207
2021/06/13 00:17:00.010,n,159,4.68,3.96,4.68,11.7,72.3,1020.42,0,0,0,0,0.016556
2021/06/13 00:18:00.005,n,184,2.88,1.08,3.6,11.7,72.6,1020.42,0,0,0,0,0.021782
2021/06/13 00:19:00.003,n,185,4.68,3.96,5.4,11.6,72.1,1020.42,0,0,0,0,0.022659
2021/06/13 00:20:00.000,n,164,2.88,2.16,3.6,11.6,72.3,1020.42,0,0,0,0,0.025253
2021/06/13 00:21:00.000,n,163,4.68,4.32,5.4,11.6,72.4,1020.42,0,0,0,0,0.026131
2021/06/13 00:22:00.000,n,195,1.08,0.36,1.8,11.6,72.3,1020.42,0,0,0,0,0.022659
2021/06/13 00:23:00.009,n,194,1.8,1.08,2.16,11.6,72.5,1020.42,0,0,0,0,0.026131
2021/06/13 00:24:00.006,n,166,3.6,3.24,3.6,11.6,72.7,1020.32,0,0,0,0,0.026131
2021/06/13 00:25:00.004,n,161,1.8,1.44,1.8,11.6,72.7,1020.42,0,0,0,0,0.019188
2021/06/13 00:26:00.000,n,169,3.24,2.88,3.6,11.5,72.7,1020.42,0,0,0,0,0.025253
2021/06/13 00:27:00.014,n,166,2.52,1.44,3.6,11.5,72.8,1020.42,0,0,0,0,0.021782
2021/06/13 00:28:00.000,n,162,1.44,0.72,2.52,11.5,73,1020.42,0,0,0,0,0.019188
2021/06/13 00:29:00.000,n,150,3.96,3.6,5.04,11.5,73,1020.42,0,0,0,0,0.025253
2021/06/13 00:30:00.005,n,168,3.96,3.24,5.04,11.5,73,1020.42,0,0,0,0,0.016556
2021/06/13 00:31:00.002,n,135,4.32,3.6,5.4,11.5,73.1,1020.32,0,0,0,0,0.022659
2021/06/13 00:32:00.000,n,165,6.84,6.12,7.2,11.5,73,1020.32,0,0,0,0,0.024414
2021/06/13 00:33:00.000,n,152,6.12,5.4,6.84,11.4,73.1,1020.32,0,0,0,0,0.020065
2021/06/13 00:34:00.009,n,168,5.4,4.32,6.12,11.4,73.3,1020.32,0,0,0,0,0.021782
2021/06/13 00:35:00.007,n,177,3.24,1.08,5.04,11.4,73.3,1020.32,0,0,0,0,0.015717
2021/06/13 00:36:00.003,n,182,6.12,5.04,6.48,11.3,73.3,1020.32,0,0,0,0,0.019188
2021/06/13 00:37:00.001,n,153,1.08,0.36,2.16,11.3,73.2,1020.32,0,0,0,0,0.021782
2021/06/13 00:38:00.000,n,123,1.44,0.36,3.24,11.3,73.1,1020.32,0,0,0,0,0.014801
2021/06/13 00:39:00.000,n,137,4.68,3.96,5.76,11.3,73.2,1020.32,0,0,0,0,0.018311
2021/06/13 00:40:00.000,n,168,2.88,2.16,3.6,11.3,73.2,1020.32,0,0,0,0,0.019188
2021/06/13 00:41:00.007,n,160,3.24,2.52,3.96,11.3,73.2,1020.32,0,0,0,0,0.017433
2021/06/13 00:42:00.004,n,158,4.68,3.24,5.76,11.3,73.3,1020.22,0,0,0,0,0.017433
2021/06/13 00:43:00.001,n,96,1.44,0.72,1.8,11.2,73.3,1020.32,0,0,0,0,0.014801
2021/06/13 00:44:00.000,n,189,1.08,0.72,1.44,11.2,73.3,1020.32,0,0,0,0,0.015717
2021/06/13 00:45:00.011,n,238,0.36,0.36,0.72,11.2,73.4,1020.32,0,0,0,0,0.019188
2021/06/13 00:46:00.000,n,135,1.44,1.44,2.16,11.2,73.3,1020.32,0,0,0,0,0.015717
2021/06/13 00:47:00.000,n,208,1.08,0.72,1.44,11.2,73.4,1020.32,0,0,0,0,0.015717
2021/06/13 00:48:00.005,n,214,1.8,1.44,2.16,11.2,73.4,1020.32,0,0,0,0,0.016556
2021/06/13 00:49:00.002,n,206,1.08,1.08,1.44,11.2,73.4,1020.32,0,0,0,0,0.014801
2021/06/13 00:50:00.001,n,69,0.72,0.36,1.08,11.2,73.3,1020.32,0,0,0,0,0.015717
2021/06/13 00:51:00.000,n,118,1.08,0.72,1.44,11.2,73.5,1020.32,0,0,0,0,0.018311
2021/06/13 00:52:00.006,n,244,0.36,0,0.72,11.2,73.7,1020.32,0,0,0,0,0.023537
2021/06/13 00:53:00.004,n,103,1.44,1.08,1.44,11.2,73.5,1020.22,0,0,0,0,0.020065
2021/06/13 00:54:00.001,n,165,1.8,1.8,2.16,11.2,73.5,1020.22,0,0,0,0,0.020943
2021/06/13 00:55:00.000,n,198,0.72,0.36,1.08,11.1,73.4,1020.22,0,0,0,0,0.021782
2021/06/13 00:56:00.000,n,295,1.44,1.08,1.8,11.1,73.6,1020.22,0,0,0,0,0.019188
2021/06/13 00:57:00.000,n,305,2.88,2.16,3.24,11.1,73.8,1020.22,0,0,0,0,0.019188
2021/06/13 00:58:00.005,n,312,0.72,0.36,1.08,11.1,73.7,1020.22,0,0,0,0,0.023537
2021/06/13 00:59:00.002,n,279,0.72,0.36,0.72,11.1,73.5,1020.22,0,0,0,0,0.021782
2021/06/13 01:00:00.002,n,43,1.08,0,1.44,11.1,73.7,1020.22,0,0,0,0,0.020943
2021/06/13 01:01:00.000,n,64,0.72,0.36,0.72,11.1,73.9,1020.22,0,0,0,0,0.024414
2021/06/13 01:02:00.011,n,138,1.08,0.72,1.8,11.2,73.8,1020.22,0,0,0,0,0.019188
2021/06/13 01:03:00.008,n,151,1.44,1.44,1.8,11.2,73.6,1020.22,0,0,0,0,0.023537
2021/06/13 01:04:00.000,n,159,1.8,1.44,2.16,11.1,73.6,1020.22,0,0,0,0,0.023537
2021/06/13 01:05:00.002,n,144,2.88,2.88,2.88,11.1,73.6,1020.22,0,0,0,0,0.016594
2021/06/13 01:06:00.000,n,145,4.32,3.96,4.32,11.1,73.7,1020.12,0,0,0,0,0.015717
2021/06/13 01:07:00.000,n,159,3.6,3.24,3.96,11.1,73.7,1020.12,0,0,0,0,0.015717
2021/06/13 01:08:00.008,n,150,3.24,3.24,3.6,11.1,73.7,1020.12,0,0,0,0,0.023537
2021/06/13 01:09:00.006,n,140,2.88,2.16,3.6,11.1,73.9,1020.12,0,0,0,0,0.01915
2021/06/13 01:10:00.004,n,148,1.44,1.08,2.16,11.1,74,1020.12,0,0,0,0,0.024414
2021/06/13 01:11:00.001,n,163,2.88,2.52,3.24,11.1,74,1020.12,0,0,0,0,0.020905
2021/06/13 01:12:00.014,n,145,2.52,2.16,2.88,11.1,73.9,1020.12,0,0,0,0,0.021782
2021/06/13 01:13:00.000,n,164,2.16,2.16,2.52,11.1,74.1,1020.02,0,0,0,0,0.020905
2021/06/13 01:14:00.000,n,166,4.32,3.24,4.32,11.1,73.9,1020.02,0,0,0,0,0.022659
2021/06/13 01:15:00.005,n,130,2.52,2.16,2.88,11,73.8,1020.02,0,0,0,0,0.021782
2021/06/13 01:16:00.003,n,166,4.32,3.96,4.68,11,73.8,1020.02,0,0,0,0,0.027008
2021/06/13 01:17:00.000,n,166,3.6,2.88,4.32,11,73.8,1020.02,0,0,0,0,0.017433
2021/06/13 01:18:00.000,n,150,3.24,2.16,3.96,11,73.9,1020.02,0,0,0,0,0.020905
2021/06/13 01:19:00.011,n,157,5.76,5.4,6.12,11,73.8,1020.02,0,0,0,0,0.020905
2021/06/13 01:20:00.008,n,74,2.88,0.36,4.32,11,73.9,1020.02,0,0,0,0,0.017433
2021/06/13 01:21:00.005,n,147,5.76,5.76,6.12,11,74,1020.02,0,0,0,0,0.020905
2021/06/13 01:22:00.002,n,177,6.84,6.48,7.2,10.9,74.1,1020.02,0,0,0,0,0.013962
2021/06/13 01:23:00.000,n,156,4.32,3.6,5.04,10.9,74.3,1020.02,0,0,0,0,0.01915
2021/06/13 01:24:00.000,n,187,5.76,5.4,5.76,10.9,74.3,1020.02,0,0,0,0,0.01915
2021/06/13 01:25:00.000,n,159,6.48,5.4,7.2,10.9,74.4,1020.02,0,0,0,0,0.020905
2021/06/13 01:26:00.006,n,168,5.76,5.04,6.48,10.9,74.6,1019.92,0,0,0,0,0.020065
2021/06/13 01:27:00.003,n,174,6.84,5.04,7.92,10.9,74.6,1019.92,0,0,0,0,0.020905
2021/06/13 01:28:00.000,n,153,6.12,5.76,6.84,10.8,74.7,1020.02,0,0,0,0,0.020065
2021/06/13 01:29:00.014,n,180,2.88,1.44,4.68,10.8,74.7,1019.92,0,0,0,0,0.01133
2021/06/13 01:30:00.011,n,169,4.32,3.96,4.68,10.8,74.7,1020.02,0,0,0,0,0.018311
2021/06/13 01:31:00.000,n,170,3.24,2.52,3.96,10.8,74.9,1020.02,0,0,0,0,0.013962
2021/06/13 01:32:00.000,n,169,3.6,3.24,3.96,10.8,75,1020.02,0,0,0,0,0.013962
2021/06/13 01:33:00.002,n,168,5.76,5.4,6.48,10.8,75,1020.02,0,0,0,0,0.013962
2021/06/13 01:34:00.000,n,166,3.6,2.52,4.68,10.8,75.1,1019.92,0,0,0,0,0.013084
2021/06/13 01:35:00.000,n,140,5.04,3.24,5.76,10.7,75.2,1019.92,0,0,0,0,0.018311
2021/06/13 01:36:00.006,n,174,3.6,2.16,4.68,10.7,75.4,1019.92,0,0,0,0,0.027008
2021/06/13 01:37:00.004,n,147,4.68,3.96,5.4,10.7,75.6,1019.92,0,0,0,0,0.025291
2021/06/13 01:38:00.001,n,153,5.04,4.32,5.76,10.7,75.8,1019.92,0,0,0,0,0.021782
2021/06/13 01:39:00.016,n,119,1.08,0.36,2.16,10.6,75.8,1019.92,0,0,0,0,0.024414
2021/06/13 01:40:00.000,n,148,1.8,1.8,2.16,10.6,75.9,1019.92,0,0,0,0,0.023537
2021/06/13 01:41:00.000,n,156,1.8,1.8,2.16,10.6,76,1019.92,0,0,0,0,0.027008
2021/06/13 01:42:00.000,n,152,4.68,3.96,5.4,10.6,76.3,1019.92,0,0,0,0,0.027008
2021/06/13 01:43:00.005,n,147,3.24,2.16,3.96,10.6,76.4,1019.92,0,0,0,0,0.028763
2021/06/13 01:44:00.004,n,152,4.68,4.32,5.04,10.5,76.5,1019.92,0,0,0,0,0.030518
2021/06/13 01:45:00.001,n,148,5.4,5.04,5.4,10.5,76.6,1019.92,0,0,0,0,0.023537
2021/06/13 01:46:00.000,n,164,3.6,2.52,4.32,10.5,76.7,1019.82,0,0,0,0,0.027924
2021/06/13 01:47:00.012,n,149,4.68,4.32,5.04,10.5,76.9,1019.82,0,0,0,0,0.027924
2021/06/13 01:48:00.009,n,156,3.96,3.96,4.68,10.4,77.1,1019.82,0,0,0,0,0.025291
2021/06/13 01:49:00.000,n,183,3.6,3.24,3.96,10.4,77.3,1019.82,0,0,0,0,0.026131
2021/06/13 01:50:00.000,n,168,3.24,2.16,4.32,10.4,77.3,1019.82,0,0,0,0,0.026131
2021/06/13 01:51:00.001,n,73,1.08,0.72,2.88,10.4,77.5,1019.82,0,0,0,0,0.024414
2021/06/13 01:52:00.000,n,184,2.88,2.16,3.24,10.4,77.6,1019.72,0,0,0,0,0.021782
2021/06/13 01:53:00.000,n,202,2.88,2.16,3.6,10.4,77.7,1019.72,0,0,0,0,0.018311
2021/06/13 01:54:00.008,n,177,2.88,2.16,3.24,10.3,77.9,1019.72,0,0,0,0,0.025291
2021/06/13 01:55:00.005,n,169,3.24,2.88,3.96,10.3,77.9,1019.72,0,0,0,0,0.019188
2021/06/13 01:56:00.003,n,154,2.16,2.16,2.52,10.3,78,1019.72,0,0,0,0,0.020027
2021/06/13 01:57:00.000,n,170,0.72,0.36,1.44,10.3,78.1,1019.72,0,0,0,0,0.016594
2021/06/13 01:58:00.000,n,140,2.88,1.8,3.24,10.3,78.1,1019.72,0,0,0,0,0.017433
2021/06/13 01:59:00.000,n,148,2.16,2.16,2.52,10.3,78.3,1019.72,0,0,0,0,0.019188
2021/06/13 02:00:00.000,n,170,1.08,0.36,2.16,10.3,78.3,1019.72,0,0,0,0,0.018311
2021/06/13 02:01:00.005,n,195,0.36,0.36,0.36,10.2,78.4,1019.72,0,0,0,0,0.020943
2021/06/13 02:02:00.003,n,199,1.44,1.44,1.8,10.2,78.4,1019.62,0,0,0,0,0.019188
2021/06/13 02:03:00.001,n,271,4.32,3.96,4.68,10.2,78.3,1019.62,0,0,0,0,0.017433
2021/06/13 02:04:00.000,n,255,3.6,2.88,3.6,10.1,77.7,1019.62,0,0,0,0,0.019188
2021/06/13 02:05:00.013,n,276,2.88,2.52,3.24,10.1,77.7,1019.62,0,0,0,0,0.017433
2021/06/13 02:06:00.011,n,202,1.44,0.72,1.8,10.1,77.7,1019.62,0,0,0,0,0.014801
2021/06/13 02:07:00.000,n,188,0.36,0,0.72,10.1,78.2,1019.62,0,0,0,0,0.014801
2021/06/13 02:08:00.000,n,169,2.88,2.52,3.24,10.1,78.2,1019.62,0,0,0,0,0.014801
2021/06/13 02:09:00.002,n,173,1.08,0.36,2.52,10.2,78.2,1019.62,0,0,0,0,0.013084
2021/06/13 02:10:00.000,n,139,2.16,1.8,2.16,10.2,78.2,1019.62,0,0,0,0,0.012207
2021/06/13 02:11:00.000,n,86,0.72,0.36,1.08,10.2,78.2,1019.62,0,0,0,0,0.020943
2021/06/13 02:12:00.010,n,151,1.8,0.72,2.88,10.1,78.2,1019.52,0,0,0,0,0.018311
2021/06/13 02:13:00.009,n,132,2.88,2.16,3.24,10.1,78.3,1019.52,0,0,0,0,0.014801
2021/06/13 02:14:00.006,n,129,2.16,1.8,2.52,10.1,78.4,1019.52,0,0,0,0,0.019188
2021/06/13 02:15:00.000,n,92,0.72,0.36,0.72,10.1,78.4,1019.52,0,0,0,0,0.022659
2021/06/13 02:16:00.000,n,95,2.52,1.8,3.24,10.1,79.2,1019.52,0,0,0,0,0.021782
2021/06/13 02:17:00.000,n,158,0.36,0.36,0.72,10.1,78.7,1019.52,0,0,0,0,0.022659
2021/06/13 02:18:00.000,n,350,3.6,3.24,4.32,10.1,78.7,1019.52,0,0,0,0,0.019188
2021/06/13 02:19:00.004,n,202,0.72,0.36,1.08,10.1,78.8,1019.52,0,0,0,0,0.020905
2021/06/13 02:20:00.002,n,104,1.8,1.44,2.16,10.2,78.6,1019.52,0,0,0,0,0.017395
2021/06/13 02:21:00.000,n,214,0.36,0,0.72,10.2,78.4,1019.52,0,0,0,0,0.015678
2021/06/13 02:22:00.000,n,333,3.6,2.88,4.32,10.2,78.5,1019.52,0,0,0,0,0.016556
2021/06/13 02:23:00.010,n,270,3.6,3.24,3.96,10.2,77.9,1019.52,0,0,0,0,0.017395
2021/06/13 02:24:00.007,n,292,2.52,1.8,3.24,10.1,77.6,1019.52,0,0,0,0,0.017395
2021/06/13 02:25:00.000,n,258,3.6,3.6,3.96,10.1,77.3,1019.52,0,0,0,0,0.020027
2021/06/13 02:26:00.000,n,276,1.8,1.08,2.16,10.1,77.3,1019.52,0,0,0,0,0.014801
2021/06/13 02:27:00.000,n,290,1.08,0.36,1.8,10.1,77.3,1019.52,0,0,0,0,0.020905
2021/06/13 02:28:00.000,n,80,0.72,0.36,1.08,10.1,77.6,1019.42,0,0,0,0,0.015678
2021/06/13 02:29:00.000,n,283,1.8,1.08,2.16,10.1,77.4,1019.42,0,0,0,0,0.017395
2021/06/13 02:30:00.006,n,122,1.8,1.44,2.16,10.1,77.4,1019.42,0,0,0,0,0.019188
2021/06/13 02:31:00.003,n,267,1.08,0.72,1.44,10.1,77.3,1019.42,0,0,0,0,0.016556
2021/06/13 02:32:00.001,n,285,2.52,2.16,2.52,10.1,77.2,1019.42,0,0,0,0,0.017395
2021/06/13 02:33:00.014,n,220,0.72,0.36,1.08,10.1,77.3,1019.42,0,0,0,0,0.01133
2021/06/13 02:34:00.000,n,235,0.36,0,0.36,10.1,77.3,1019.42,0,0,0,0,0.020027
2021/06/13 02:35:00.000,n,158,1.8,1.44,2.16,10.1,77.3,1019.42,0,0,0,0,0.013924
2021/06/13 02:36:00.000,n,2,0.72,0.36,1.44,10.1,77.3,1019.42,0,0,0,0,0.016556
2021/06/13 02:37:00.003,n,140,1.44,1.08,1.44,10.1,77.2,1019.42,0,0,0,0,0.018272
2021/06/13 02:38:00.001,n,130,1.08,0.72,1.08,10.1,77.4,1019.42,0,0,0,0,0.01133
2021/06/13 02:39:00.000,n,130,0.36,0,0.72,10,77.4,1019.42,0,0,0,0,0.013046
2021/06/13 02:40:00.010,n,324,0.72,0.36,0.72,10,77.5,1019.42,0,0,0,0,0.019188
2021/06/13 02:41:00.007,n,116,0.72,0.36,1.08,10,78,1019.42,0,0,0,0,0.017395
2021/06/13 02:42:00.004,n,106,1.8,1.08,2.52,10,78.3,1019.42,0,0,0,0,0.017395
2021/06/13 02:43:00.002,n,80,1.8,0.72,3.24,10,78.5,1019.42,0,0,0,0,0.015678
2021/06/13 02:44:00.000,n,106,1.44,1.08,1.8,10,78.4,1019.42,0,0,0,0,0.016556
2021/06/13 02:45:00.000,n,103,1.44,1.08,1.8,10,78.3,1019.42,0,0,0,0,0.012207
2021/06/13 02:46:00.000,n,118,1.8,1.8,2.16,9.9,78.5,1019.42,0,0,0,0,0.012207
2021/06/13 02:47:00.000,n,157,1.44,1.08,1.8,9.9,78.5,1019.52,0,0,0,0,0.006065
2021/06/13 02:48:00.004,n,135,1.08,0.72,1.08,9.9,78.5,1019.52,0,0,0,0,0.007858
2021/06/13 02:49:00.009,n,121,1.08,1.08,1.44,9.9,78.5,1019.42,0,0,0,0,0.007858
2021/06/13 02:50:00.000,n,151,1.44,1.44,1.8,9.9,78.8,1019.42,0,0,0,0,0.010452
2021/06/13 02:51:00.005,n,129,2.16,1.8,2.52,9.9,78.8,1019.42,0,0,0,0,0.010452
2021/06/13 02:52:00.000,n,130,1.8,1.44,2.16,9.9,79,1019.42,0,0,0,0,0.021744
2021/06/13 02:53:00.000,n,145,3.24,3.24,3.24,9.9,79.1,1019.42,0,0,0,0,0.017395
2021/06/13 02:54:00.003,n,147,3.24,2.88,3.6,9.9,79.2,1019.42,0,0,0,0,0.022621
2021/06/13 02:55:00.000,n,145,3.24,2.52,3.6,9.9,79.2,1019.42,0,0,0,0,0.023537
2021/06/13 02:56:00.000,n,141,2.88,2.88,3.24,9.9,79.3,1019.42,0,0,0,0,0.022621
2021/06/13 02:57:00.003,n,126,1.44,1.08,1.44,9.9,79.3,1019.42,0,0,0,0,0.019188
2021/06/13 02:58:00.009,n,139,1.8,1.44,1.8,9.8,79.2,1019.42,0,0,0,0,0.023537
2021/06/13 02:59:00.000,n,155,1.08,0.72,1.08,9.8,79.2,1019.42,0,0,0,0,0.020905
2021/06/13 03:00:00.005,n,105,1.44,1.44,1.8,9.8,79.2,1019.42,0,0,0,0,0.022621
2021/06/13 03:01:00.000,n,117,1.8,1.44,1.8,9.8,79.3,1019.42,0,0,0,0,0.016556
2021/06/13 03:02:00.000,n,101,1.44,1.44,1.8,9.8,79.4,1019.42,0,0,0,0,0.020027
2021/06/13 03:03:00.004,n,112,2.16,1.8,2.16,9.8,79.6,1019.42,0,0,0,0,0.020027
2021/06/13 03:04:00.000,n,112,1.8,1.44,1.8,9.8,79.6,1019.42,0,0,0,0,0.024376
2021/06/13 03:05:00.000,n,128,1.8,1.8,2.16,9.8,79.7,1019.42,0,0,0,0,0.024376
2021/06/13 03:06:00.004,n,146,2.16,1.8,2.52,9.8,79.8,1019.42,0,0,0,0,0.019188
2021/06/13 03:07:00.010,n,139,2.88,2.16,3.24,9.8,80,1019.42,0,0,0,0,0.020027
2021/06/13 03:08:00.000,n,150,3.6,3.6,3.96,9.8,80.1,1019.42,0,0,0,0,0.012207
2021/06/13 03:09:00.004,n,152,3.6,3.24,3.6,9.8,80.2,1019.42,0,0,0,0,0.011292
2021/06/13 03:10:00.000,n,155,3.6,3.6,3.96,9.8,80.3,1019.42,0,0,0,0,0.017395
2021/06/13 03:11:00.000,n,163,3.6,3.24,3.96,9.8,80.2,1019.42,0,0,0,0,0.015678
2021/06/13 03:12:00.002,n,153,2.16,1.44,2.88,9.9,80.2,1019.42,0,0,0,0,0.013924
2021/06/13 03:13:00.007,n,165,4.68,4.68,5.04,9.9,80.1,1019.42,0,0,0,0,0.020027
2021/06/13 03:14:00.000,n,154,4.68,4.32,5.04,9.9,80,1019.42,0,0,0,0,0.020027
2021/06/13 03:15:00.000,n,159,5.4,4.68,5.76,9.9,80,1019.42,0,0,0,0,0.024376
2021/06/13 03:16:00.005,n,162,4.68,4.68,5.04,9.9,79.8,1019.42,0,0,0,0,0.009575
2021/06/13 03:17:00.011,n,151,5.4,4.68,5.76,9.9,79.6,1019.42,0,0,0,0,0.015678
2021/06/13 03:18:00.016,n,155,4.68,4.68,5.04,9.9,79.7,1019.32,0,0,0,0,0.019188
2021/06/13 03:19:00.000,n,156,3.96,3.6,4.32,9.9,79.7,1019.32,0,0,0,0,0.013046
2021/06/13 03:20:00.000,n,150,3.24,2.52,3.96,9.8,79.8,1019.32,0,0,0,0,0.013924
2021/06/13 03:21:00.001,n,144,5.4,4.68,5.76,9.8,80,1019.32,0,0,0,0,0.013924
2021/06/13 03:22:00.006,n,146,5.04,4.32,5.4,9.8,80.4,1019.32,0,0,0,0,0.015678
2021/06/13 03:23:00.000,n,145,6.12,5.4,6.48,9.8,80.5,1019.32,0,0,0,0,0.015678
2021/06/13 03:24:00.000,n,147,3.6,3.24,3.96,9.8,80.6,1019.32,0,0,0,0,0.013046
2021/06/13 03:25:00.005,n,152,4.68,4.32,5.04,9.8,80.6,1019.32,0,0,0,0,0.013046
2021/06/13 03:26:00.010,n,146,3.6,2.88,4.32,9.7,80.6,1019.32,0,0,0,0,0.014801
2021/06/13 03:27:00.015,n,131,2.52,2.16,3.24,9.7,80.6,1019.32,0,0,0,0,0.014801
2021/06/13 03:28:00.000,n,88,1.08,0.72,1.8,9.7,80.6,1019.32,0,0,0,0,0.012207
2021/06/13 03:29:00.000,n,107,1.44,1.08,1.8,9.7,80.6,1019.42,0,0,0,0,0.012207
2021/06/13 03:30:00.000,n,141,2.16,2.16,2.16,9.7,80.6,1019.32,0,0,0,0,0.010414
2021/06/13 03:31:00.003,n,139,1.8,1.44,2.16,9.6,80.8,1019.32,0,0,0,0,0.008698
2021/06/13 03:32:00.008,n,141,2.88,2.16,3.24,9.6,80.9,1019.32,0,0,0,0,0.009575
2021/06/13 03:33:00.000,n,137,3.24,2.88,3.6,9.6,81,1019.32,0,0,0,0,0.011292
2021/06/13 03:34:00.002,n,119,2.16,1.8,2.88,9.6,81,1019.32,0,0,0,0,0.019188
2021/06/13 03:35:00.007,n,118,1.8,1.8,2.16,9.6,81,1019.32,0,0,0,0,0.015678
2021/06/13 03:36:00.012,n,130,1.08,1.08,1.08,9.6,80.9,1019.32,0,0,0,0,0.011292
2021/06/13 03:37:00.001,n,159,2.52,2.16,2.88,9.6,80.9,1019.22,0,0,0,0,0.013924
2021/06/13 03:38:00.000,n,110,2.16,1.44,2.16,9.6,80.9,1019.22,0,0,0,0,0.013924
2021/06/13 03:39:00.000,n,111,1.8,1.44,1.8,9.6,80.9,1019.22,0,0,0,0,0.013046
2021/06/13 03:40:00.000,n,82,1.8,1.44,2.52,9.6,81,1019.22,0,0,0,0,0.015678
2021/06/13 03:41:00.004,n,99,2.16,1.8,2.88,9.6,81,1019.22,0,0,0,0,0.013924
2021/06/13 03:42:00.009,n,93,2.52,2.16,2.88,9.6,81.1,1019.22,0,0,0,0,0.011292
2021/06/13 03:43:00.000,n,96,2.52,2.16,2.88,9.6,81.1,1019.22,0,0,0,0,0.007858
2021/06/13 03:44:00.003,n,129,1.08,0.36,1.44,9.6,81.1,1019.22,0,0,0,0,0.014801
2021/06/13 03:45:00.008,n,123,0.72,0.36,1.08,9.6,81.2,1019.22,0,0,0,0,0.012207
2021/06/13 03:46:00.000,n,92,2.16,1.8,2.16,9.6,81.2,1019.22,0,0,0,0,0.015678
2021/06/13 03:47:00.002,n,106,1.08,1.08,1.44,9.6,81.2,1019.22,0,0,0,0,0.008698
2021/06/13 03:48:00.000,n,130,1.8,1.8,2.16,9.6,81.3,1019.22,0,0,0,0,0.011292
2021/06/13 03:49:00.000,n,105,2.88,2.88,3.24,9.6,81.4,1019.22,0,0,0,0,0.016556
2021/06/13 03:50:00.000,n,100,2.88,2.52,3.24,9.6,81.4,1019.22,0,0,0,0,0.019188
2021/06/13 03:51:00.003,n,114,3.24,2.52,3.96,9.7,81.3,1019.22,0,0,0,0,0.017433
2021/06/13 03:52:00.008,n,139,2.88,2.52,3.6,9.7,81.2,1019.22,0,0,0,0,0.023537
2021/06/13 03:53:00.013,n,131,2.88,2.52,3.24,9.7,81.2,1019.22,0,0,0,0,0.025253
2021/06/13 03:54:00.002,n,120,1.44,1.08,1.8,9.6,81.3,1019.22,0,0,0,0,0.019188
2021/06/13 03:55:00.000,n,113,2.16,1.8,2.88,9.7,81.3,1019.22,0,0,0,0,0.020905
2021/06/13 03:56:00.000,n,127,1.8,1.8,2.16,9.7,81.3,1019.22,0,0,0,0,0.021782
2021/06/13 03:57:00.001,n,130,3.96,3.24,4.32,9.7,81.4,1019.22,0,0,0,0,0.021782
2021/06/13 03:58:00.006,n,148,2.88,2.16,3.24,9.7,81.4,1019.22,0,0,0,0,0.021782
2021/06/13 03:59:00.000,n,92,2.88,2.52,3.6,9.7,81.4,1019.22,0,0,0,0,0.019188
2021/06/13 04:00:00.001,n,150,3.6,3.24,3.6,9.7,81.4,1019.22,0,0,0,0,0.017433
2021/06/13 04:01:00.007,n,149,2.88,2.52,3.6,9.7,81.3,1019.22,0,0,0,0,0.021782
2021/06/13 04:02:00.012,n,132,1.44,1.44,2.16,9.7,81.3,1019.22,0,0,0,0,0.023537
2021/06/13 04:03:00.000,n,158,3.96,3.96,3.96,9.7,81.3,1019.22,0,0,0,0,0.018311
2021/06/13 04:04:00.000,n,151,3.6,3.24,3.6,9.7,81.3,1019.22,0,0,0,0,0.021782
2021/06/13 04:05:00.000,n,139,2.88,2.16,3.24,9.7,81.3,1019.22,0,0,0,0,0.020905
2021/06/13 04:06:00.000,n,133,3.6,3.24,3.96,9.7,81.2,1019.22,0,0,0,0,0.020905
2021/06/13 04:07:00.004,n,115,2.52,2.16,3.24,9.7,81.3,1019.22,0,0,0,0,0.022659
2021/06/13 04:08:00.000,n,136,3.6,2.16,4.32,9.7,81.3,1019.22,0,0,0,0,0.021782
2021/06/13 04:09:00.000,n,96,2.52,1.8,3.24,9.7,81.3,1019.22,0,0,0,0,0.021782
2021/06/13 04:10:00.003,n,125,1.44,1.08,1.8,9.7,81.3,1019.22,0,0,0,0,0.022659
2021/06/13 04:11:00.008,n,87,2.52,1.8,3.6,9.7,81.5,1019.22,0,0,0,0,0.020065
2021/06/13 04:12:00.013,n,72,0.36,0,0.72,9.7,81.5,1019.22,0,0,0,0,0.020065
2021/06/13 04:13:00.002,n,88,1.08,0.36,1.08,9.7,81.6,1019.22,0,0,0,0,0.015678
2021/06/13 04:14:00.000,n,94,3.6,3.24,3.96,9.7,81.5,1019.22,0,0,0,0,0.016556
2021/06/13 04:15:00.000,n,120,2.16,1.8,2.52,9.7,81.5,1019.22,0,0,0,0,0.024414
2021/06/13 04:16:00.001,n,142,2.16,1.44,3.24,9.7,81.4,1019.22,0,0,0,0,0.012207
2021/06/13 04:17:00.006,n,126,1.8,1.44,2.16,9.7,81.5,1019.22,0,0,0,0,0.015678
2021/06/13 04:18:00.011,n,120,2.88,2.52,3.24,9.7,81.5,1019.22,0,0,0,0,0.017433
2021/06/13 04:19:00.000,n,112,3.24,2.88,3.96,9.7,81.6,1019.22,0,0,0,0,0.016556
2021/06/13 04:20:00.005,n,110,3.96,3.6,3.96,9.7,81.6,1019.22,0,0,0,0,0.016556
2021/06/13 04:21:00.010,n,139,3.96,3.6,4.68,9.7,81.5,1019.22,0,0,0,0,0.021782
2021/06/13 04:22:00.000,n,142,3.24,2.88,3.6,9.7,81.4,1019.22,0,0,0,0,0.015678
2021/06/13 04:23:00.000,n,146,3.96,3.6,3.96,9.7,81.5,1019.22,0,0,0,0,0.020065
2021/06/13 04:24:00.000,n,116,2.88,2.16,3.24,9.7,81.5,1019.22,0,0,0,0,0.017433
2021/06/13 04:25:00.000,n,145,3.96,3.6,3.96,9.7,81.4,1019.22,0,0,0,0,0.014839
2021/06/13 04:26:00.002,n,143,3.24,3.24,3.24,9.7,81.4,1019.22,0,0,0,0,0.021782
2021/06/13 04:27:00.007,n,134,3.6,3.6,3.96,9.7,81.4,1019.22,0,0,0,0,0.027885
2021/06/13 04:28:00.012,n,105,2.16,1.8,2.52,9.7,81.5,1019.22,0,0,0,0,0.017433
2021/06/13 04:29:00.002,n,111,1.44,1.44,1.8,9.6,81.4,1019.22,0,0,0,0,0.016556
2021/06/13 04:30:00.006,n,116,2.16,1.8,2.52,9.6,81.5,1019.22,0,0,0,0,0.015678
2021/06/13 04:31:00.000,n,119,2.16,1.8,2.52,9.6,81.6,1019.22,0,0,0,0,0.013924
2021/06/13 04:32:00.000,n,105,1.8,1.8,2.16,9.6,81.6,1019.22,0,0,0,0,0.016556
2021/06/13 04:33:00.004,n,127,1.8,1.44,1.8,9.6,81.6,1019.22,0,0,0,0,0.018311
2021/06/13 04:34:00.000,n,116,2.16,2.16,2.16,9.6,81.6,1019.22,0,0,0,0,0.017433
2021/06/13 04:35:00.000,n,148,2.52,2.52,2.88,9.6,81.5,1019.22,0,0,0,0,0.013084
2021/06/13 04:36:00.003,n,131,2.52,1.8,2.88,9.6,81.5,1019.22,0,0,0,0,0.015678
2021/06/13 04:37:00.008,n,130,2.88,2.52,3.24,9.6,81.5,1019.22,0,0,0,0,0.020905
2021/06/13 04:38:00.013,n,133,4.68,4.32,4.68,9.6,81.4,1019.22,0,0,0,0,0.016556
2021/06/13 04:39:00.002,n,141,4.32,3.6,4.68,9.6,81.4,1019.22,0,0,0,0,0.016556
2021/06/13 04:40:00.000,n,128,2.88,2.16,3.96,9.6,81.3,1019.22,0,0,0,0,0.018311
2021/06/13 04:41:00.000,n,137,2.16,1.44,3.24,9.6,81.2,1019.22,0,0,0,0,0.013924
2021/06/13 04:42:00.002,n,131,3.96,3.24,4.68,9.6,81.2,1019.22,0,0,0,0,0.013924
2021/06/13 04:43:00.007,n,130,4.68,4.68,5.04,9.6,81.3,1019.22,0,0,0,0,0.016556
2021/06/13 04:44:00.000,n,141,4.32,3.96,4.68,9.6,81.3,1019.22,0,0,0,0,0.016556
2021/06/13 04:45:00.001,n,145,4.68,4.32,4.68,9.6,81.3,1019.32,0,0,0,0,0.016556
2021/06/13 04:46:00.006,n,127,4.32,3.96,4.68,9.6,81.2,1019.32,0,0,0,0,0.014839
2021/06/13 04:47:00.011,n,112,2.52,2.16,2.88,9.6,81.2,1019.22,0,0,0,0,0.016556
2021/06/13 04:48:00.000,n,124,2.52,1.08,3.24,9.6,81.1,1019.22,0,0,0,0,0.020065
2021/06/13 04:49:00.000,n,126,3.96,3.6,4.32,9.6,81,1019.22,0,0,0,0,0.018311
2021/06/13 04:50:00.000,n,147,3.24,2.88,3.6,9.6,80.9,1019.22,0,0,0,0,0.017433
2021/06/13 04:51:00.000,n,149,2.88,2.52,3.24,9.6,80.9,1019.32,0,0,0,0,0.020065
2021/06/13 04:52:00.003,n,140,3.6,3.6,3.96,9.5,80.9,1019.32,0,0,0,0,0.020065
2021/06/13 04:53:00.007,n,138,3.6,2.88,3.96,9.5,80.9,1019.32,0,0,0,0,0.012207
2021/06/13 04:54:00.000,n,135,1.8,1.44,2.16,9.5,80.9,1019.32,0,0,0,0,0.016556
2021/06/13 04:55:00.003,n,133,3.96,3.96,3.96,9.5,80.6,1019.32,0,0,0,0,0.017433
2021/06/13 04:56:00.008,n,144,3.6,3.6,3.96,9.4,80.5,1019.32,0,0,0,0,0.019188
2021/06/13 04:57:00.013,n,147,4.68,3.96,5.04,9.4,80.4,1019.32,0,0,0,0,0.016556